Twin Falls, ID

12:39 AM MDT on June 27, 2017 (GMT -0600)
Joslin Field-Magic Valley Regional

Weather History for KTWF - April, 2014

Change the Weather History Date:

Thursday, April 17, 2014

  Actual Average Record
Temperature  
Mean Temperature 57 °F -  
Max Temperature 75 °F 61 °F 84 °F (1990)
Min Temperature 38 °F 35 °F 25 °F (1991)
Degree Days  
Heating Degree Days 8 17  
Month to date heating degree days 257 313  
Since 1 July heating degree days 5116 5602  
Cooling Degree Days 0 0  
Month to date cooling degree days 0 0  
Year to date cooling degree days 0 0  
Growing Degree Days 6 (Base 50)    
Moisture  
Dew Point 27 °F    
Average Humidity 32    
Maximum Humidity 44    
Minimum Humidity 20    
Precipitation  
Precipitation T in 0.04 in 0.63 in (2002)
Month to date precipitation 0.06 0.62  
Year to date precipitation 4.19 3.45  
Sea Level Pressure  
Sea Level Pressure 29.79 in    
Wind  
Wind Speed 12 mph (South)    
Max Wind Speed 38 mph    
Max Gust Speed 48 mph    
Visibility 10 miles    
Events Rain    
T = Trace of Precipitation, MM = Missing Value Source: NWS Daily Summary

Daily Weather History Graph

Daily Weather History Graph

Search for Another Location

Airport or City:

Trip Planner

Search our weather history database for the weather conditions in past years. The results will help you decide how hot, cold, wet, or windy it might be!

Date:

Astronomy

Apr. 17, 2014 Rise Set
Actual Time 6:53 AM MDT 8:22 PM MDT
Civil Twilight 6:24 AM MDT 8:51 PM MDT
Nautical Twilight 5:48 AM MDT 9:27 PM MDT
Astronomical Twilight 5:11 AM MDT 10:05 PM MDT
Moon 11:14 PM MDT (4/17) 8:26 AM MDT (4/17)
Length of Visible Light 14h 27m
Length of Day
13h 28m
Waning Gibbous, 93% of the Moon is Illuminated
Apr 17
Waning Gibbous
Apr 22
Last Quarter
Apr 29
New
May 6
First Quarter
May 14
Full

Hourly Weather History & Observations

Time (MDT) Temp. Windchill Dew Point Humidity Pressure Visibility Wind Dir Wind Speed Gust Speed Precip Events Conditions
12:53 AM 41.0 °F 34.3 °F 18.0 °F 40% 29.95 in 10.0 mi South 11.5 mph - N/A   Clear
1:53 AM 42.1 °F 35.7 °F 18.0 °F 38% 29.96 in 10.0 mi South 11.5 mph - N/A   Clear
2:53 AM 39.0 °F 31.8 °F 19.0 °F 45% 29.95 in 10.0 mi South 11.5 mph - N/A   Clear
3:53 AM 39.0 °F 31.8 °F 18.0 °F 43% 29.94 in 10.0 mi South 11.5 mph - N/A   Clear
4:53 AM 39.0 °F 32.3 °F 18.0 °F 43% 29.93 in 10.0 mi South 10.4 mph - N/A   Clear
5:53 AM 39.0 °F 31.0 °F 18.0 °F 43% 29.92 in 10.0 mi South 13.8 mph - N/A   Clear
6:53 AM 39.0 °F 31.4 °F 18.0 °F 43% 29.93 in 10.0 mi South 12.7 mph - N/A   Clear
7:53 AM 44.1 °F 38.6 °F 19.9 °F 38% 29.93 in 10.0 mi South 10.4 mph - N/A   Clear
8:53 AM 53.1 °F - 21.9 °F 30% 29.92 in 10.0 mi South 12.7 mph - N/A   Clear
10:53 AM 60.1 °F - 25.0 °F 26% 29.90 in 10.0 mi ENE 10.4 mph - N/A   Clear
11:53 AM 63.0 °F - 26.1 °F 25% 29.87 in 10.0 mi East 6.9 mph - N/A   Clear
12:53 PM 66.0 °F - 27.0 °F 23% 29.83 in 10.0 mi Variable 5.8 mph - N/A   Clear
1:53 PM 70.0 °F - 27.0 °F 20% 29.79 in 10.0 mi SSE 11.5 mph 19.6 mph N/A   Clear
2:53 PM 71.1 °F - 28.0 °F 20% 29.76 in 10.0 mi SW 8.1 mph - N/A   Clear
3:53 PM 73.9 °F - 30.0 °F 20% 29.72 in 10.0 mi WNW 12.7 mph 26.5 mph N/A   Clear
4:08 PM 73.9 °F - 30.0 °F 20% 29.80 in 10.0 mi North 13.8 mph - N/A   Clear
4:53 PM 73.9 °F - 30.0 °F 20% 29.68 in 10.0 mi North 10.4 mph - N/A   Clear
5:53 PM 73.9 °F - 30.9 °F 21% 29.65 in 10.0 mi NNE 15.0 mph - N/A   Clear
6:53 PM 70.0 °F - 32.0 °F 25% 29.64 in 10.0 mi NE 8.1 mph - N/A   Partly Cloudy
7:53 PM 66.9 °F - 36.0 °F 32% 29.62 in 10.0 mi NE 3.5 mph - N/A   Mostly Cloudy
8:53 PM 61.0 °F - 33.1 °F 35% 29.60 in 10.0 mi SSE 6.9 mph - N/A   Clear
9:53 PM 66.0 °F - 27.0 °F 23% 29.58 in 10.0 mi SSE 19.6 mph 25.3 mph N/A   Partly Cloudy
10:53 PM 68.0 °F - 28.0 °F 22% 29.57 in 10.0 mi South 21.9 mph 29.9 mph N/A   Mostly Cloudy
11:43 PM 62.1 °F - 37.9 °F 41% 29.77 in 10.0 mi WSW 31.1 mph 41.4 mph 0.00 in Rain Light Rain
11:51 PM 62.6 °F - 37.4 °F 39% 29.77 in 10.0 mi WSW 28.8 mph 41.4 mph 0.00 in Rain Light Rain
11:53 PM 62.1 °F - 36.0 °F 38% 29.64 in 10.0 mi WSW 26.5 mph 36.8 mph 0.00 in Rain Light Rain